TimeEDT,TemperatureF,Dew PointF,Humidity,Sea Level PressureIn,VisibilityMPH,Wind Direction,Wind SpeedMPH,Gust SpeedMPH,PrecipitationIn,Events,Conditions,WindDirDegrees,DateUTC
12:53 AM,33.1,26.1,75,30.29,10.0,South,5.8,-,N/A,,Clear,190,2013-10-26 04:53:00
1:53 AM,34.0,26.1,73,30.28,10.0,SSW,6.9,-,N/A,,Clear,200,2013-10-26 05:53:00
2:53 AM,34.0,26.1,73,30.25,10.0,SSW,5.8,-,N/A,,Clear,200,2013-10-26 06:53:00
3:53 AM,34.0,26.1,73,30.23,10.0,SSW,5.8,-,N/A,,Clear,210,2013-10-26 07:53:00
4:53 AM,34.0,26.1,73,30.21,10.0,SSW,9.2,-,N/A,,Clear,200,2013-10-26 08:53:00
5:53 AM,34.0,26.1,73,30.21,10.0,SSW,8.1,-,N/A,,Clear,200,2013-10-26 09:53:00
6:53 AM,33.1,26.1,75,30.20,10.0,SSW,6.9,-,N/A,,Clear,210,2013-10-26 10:53:00
7:53 AM,33.1,25.0,72,30.17,10.0,SSW,8.1,-,N/A,,Clear,200,2013-10-26 11:53:00
8:53 AM,35.1,26.1,70,30.17,10.0,SSW,9.2,-,N/A,,Clear,210,2013-10-26 12:53:00
9:53 AM,39.9,27.0,60,30.14,10.0,SSW,13.8,19.6,N/A,,Clear,210,2013-10-26 13:53:00
10:53 AM,43.0,27.0,53,30.11,10.0,SSW,12.7,21.9,N/A,,Clear,210,2013-10-26 14:53:00
11:53 AM,45.0,27.0,49,30.08,10.0,SW,18.4,23.0,N/A,,Overcast,220,2013-10-26 15:53:00
12:53 PM,46.0,26.1,46,30.06,10.0,SSW,13.8,25.3,N/A,,Overcast,200,2013-10-26 16:53:00
1:53 PM,46.9,26.1,44,30.02,10.0,SSW,16.1,23.0,N/A,,Overcast,210,2013-10-26 17:53:00
2:53 PM,46.9,26.1,44,29.99,10.0,SW,13.8,20.7,N/A,,Overcast,220,2013-10-26 18:53:00
3:53 PM,48.0,27.0,44,29.96,10.0,SSW,17.3,23.0,N/A,,Overcast,200,2013-10-26 19:53:00
4:53 PM,48.0,27.0,44,29.95,10.0,SSW,12.7,20.7,N/A,,Overcast,210,2013-10-26 20:53:00
5:53 PM,46.9,28.9,50,29.99,10.0,West,8.1,-,N/A,,Overcast,260,2013-10-26 21:53:00
6:53 PM,46.9,30.9,54,30.01,10.0,West,8.1,-,N/A,,Overcast,270,2013-10-26 22:53:00
7:53 PM,45.0,32.0,60,30.01,10.0,SW,6.9,-,N/A,,Mostly Cloudy,220,2013-10-26 23:53:00
8:53 PM,42.1,32.0,67,30.01,10.0,Calm,Calm,-,N/A,,Mostly Cloudy,0,2013-10-27 00:53:00
9:53 PM,46.0,33.1,61,30.02,10.0,SW,6.9,-,N/A,,Overcast,230,2013-10-27 01:53:00
10:53 PM,46.0,33.1,61,30.04,10.0,WNW,3.5,-,N/A,,Overcast,290,2013-10-27 02:53:00
11:53 PM,42.1,33.1,70,30.05,10.0,West,4.6,-,N/A,,Overcast,260,2013-10-27 03:53:00